[[{"header":{"parameterUnit":"m.s-1","parameterCategory":1,"la1":30.2991,"la2":30.254,"lo1":-89.0895,"lo2":-89.0444,"dy":0.0017,"dx":0.0017,"nx":28,"ny":28,"refTime":"2023-03-18T21:00:00:Z","depth":0,"parameterNumber":2,"parameterNumberName":"U-component_of_WINDS"},"data":[0,0,0,0,0,0,0,0,0,0,0,0,0,0,0,0,0,0,0,0,0,0,0,0,0,0,0,0,0,0,0,0,0,0,0,0,0,0,0,0,0,0,0,0,0,0,0,0,0,0,0,0,0,0,0,0,0,0,-0.7398,-0.7399,0,-0.7559,-0.7561,-0.7562,-0.7554,-0.7552,-0.7549,-0.7547,-0.7719,-0.7725,-0.7732,0,0,0,0,0,0,0,0,0,0,0,0,0,-0.7088,-0.7094,-0.7397,-0.7399,-0.7401,-0.7558,-0.7561,-0.7563,-0.7554,-0.7551,-0.7549,-0.7546,-0.7717,-0.7725,-0.7733,0,0,0,0,0,0,0,0,0,0,0,0,0,-0.7233,-0.7095,-0.7397,-0.7416,-0.7419,-0.7558,-0.7561,-0.7564,-0.7555,-0.7551,-0.7548,-0.7545,-0.7714,-0.7724,-0.7734,-0.7867,0,0,-0.7765,-0.7769,0,0,0,0,0,0,0,0,-0.7225,-0.7245,-0.7411,-0.7415,-0.7419,-0.7532,-0.7515,-0.7665,-0.7556,-0.7504,-0.7547,-0.7543,-0.766,-0.7674,-0.7713,-0.7875,-0.7882,-0.7766,-0.7772,-0.7776,-0.7779,0,0,0,0,0,0,0,-0.7215,-0.7238,-0.7461,-0.7414,-0.7418,-0.7418,-0.7435,-0.7543,-0.76,-0.7508,-0.7508,-0.7526,-0.7662,-0.7703,-0.7717,-0.7884,-0.7765,-0.7774,-0.7781,-0.7785,-0.8164,-0.8168,0,0,0,0,0,0,-0.72,-0.7229,-0.7456,-0.7466,-0.7311,-0.7427,-0.7445,-0.75,-0.7599,-0.761,-0.7529,-0.7525,-0.7687,-0.7705,-0.7723,-0.7886,-0.7776,-0.7786,-0.7791,-0.816,-0.8165,-0.817,0,0,0,0,0,0,-0.7193,-0.722,-0.745,-0.7348,-0.7377,-0.7436,-0.7497,-0.7505,-0.7546,-0.7615,-0.7625,-0.7561,-0.7685,-0.7708,-0.7831,-0.7892,-0.779,-0.7799,-0.8156,-0.8162,-0.8167,-0.8212,0,0,0,0,0,0,-0.7184,-0.7218,-0.7268,-0.7349,-0.7382,-0.7554,-0.75,-0.751,-0.7563,-0.7559,-0.7647,-0.7658,-0.7684,-0.7815,-0.7841,-0.7904,-0.7807,-0.8151,-0.8158,-0.8166,-0.8206,-0.8219,-0.823,0,0,0,0,0,-0.7173,-0.7275,-0.727,-0.7298,-0.7446,-0.7557,-0.7577,-0.7603,-0.7567,-0.7619,-0.7663,-0.7655,-0.788,-0.7828,-0.7856,-0.7923,-0.8147,-0.8156,-0.8165,-0.82,-0.8216,-0.823,0,0,0,0,0,0,-0.7202,-0.7286,-0.7282,-0.7412,-0.7477,-0.7555,-0.7621,-0.7619,-0.7697,-0.7691,-0.7721,-0.7741,-0.7864,-0.7906,-0.7846,-0.8057,-0.8009,-0.8024,-0.8026,-0.8042,-0.8054,-0.8043,-0.7816,0,0,0,0,0,-0.7223,-0.7305,-0.7374,-0.7483,-0.7515,-0.7563,-0.7612,-0.7626,-0.7696,-0.7724,-0.7777,-0.7847,-0.7933,-0.7989,-0.8073,-0.821,-0.8231,-0.827,-0.8283,-0.8293,-0.8306,-0.8384,-0.8403,-0.8199,-0.8199,-0.8199,0,0,-0.7269,-0.7324,-0.7375,-0.749,-0.7542,-0.7628,-0.7586,-0.7679,-0.7743,-0.7739,-0.7858,-0.7898,-0.7978,-0.8109,-0.8169,-0.8147,-0.8366,-0.8304,-0.8311,-0.832,-0.8395,-0.8414,-0.8431,-0.8205,-0.8204,-0.8203,0,0,-0.7396,-0.7445,-0.7541,-0.7594,-0.7672,-0.7703,-0.7725,-0.7804,-0.783,-0.7949,-0.7948,-0.8026,-0.8173,-0.823,-0.8279,-0.8426,-0.8422,-0.8452,-0.8518,-0.8593,-0.8609,-0.8624,-0.8678,-0.8697,-0.8465,-0.8465,-0.8465,0,-0.7443,-0.757,-0.7592,-0.7685,-0.7737,-0.7733,-0.7833,-0.7883,-0.7986,-0.8022,-0.7995,-0.818,-0.8233,-0.8378,-0.8414,-0.8452,-0.8481,-0.8444,-0.8604,-0.8619,-0.8633,-0.8686,-0.8706,-0.8468,-0.8468,-0.8467,-0.8467,0,-0.7626,-0.7714,-0.7783,-0.7879,-0.7939,-0.8034,-0.8072,-0.813,-0.8138,-0.8172,-0.8293,-0.8356,-0.8453,-0.8487,-0.8497,-0.8634,-0.8618,-0.8597,-0.855,-0.8655,-0.8705,-0.8725,-0.8473,-0.8471,-0.847,-0.847,0,0,-0.7779,-0.7884,-0.7909,-0.7953,-0.8039,-0.8109,-0.8204,-0.8296,-0.8346,-0.8416,-0.8499,-0.8622,-0.8604,-0.8658,-0.8675,-0.874,-0.8855,-0.8712,-0.8714,-0.8738,-0.9011,-0.9028,-0.9051,-0.8851,-0.8855,-0.8858,-0.9005,0,-0.7916,-0.8084,-0.8106,-0.8256,-0.8339,-0.8336,-0.8419,-0.8482,-0.8516,-0.8592,-0.863,-0.8718,-0.8685,-0.8719,-0.8783,-0.8827,-0.891,-0.8816,-0.8931,-0.8935,-0.8914,-0.9077,-0.9095,-0.9231,-0.9025,-0.9028,-0.903,0,-0.81,-0.8173,-0.8331,-0.8404,-0.844,-0.8515,-0.8601,-0.8673,-0.8744,-0.8764,-0.8824,-0.8832,-0.8933,-0.8879,-0.902,-0.8955,-0.9003,-0.9032,-0.9038,-0.9052,-0.8991,-0.9098,-0.9275,-0.9296,-0.9061,-0.9058,-0.9056,0,-0.8198,-0.8336,-0.8448,-0.8486,-0.8574,-0.8627,-0.8667,-0.8734,-0.8788,-0.8863,-0.8899,-0.8985,-0.9034,-0.9102,-0.9133,-0.909,-0.9273,-0.9221,-0.9295,-0.9294,-0.9336,-0.9333,-0.9526,-0.9362,-0.9362,-0.9361,-0.9361,0,-0.8352,-0.8449,-0.8494,-0.8563,-0.8672,-0.8696,-0.8804,-0.8842,-0.8902,-0.898,-0.8983,-0.9057,-0.9092,-0.9172,-0.9197,-0.9311,-0.9332,-0.9353,-0.9359,-0.9354,-0.9352,-0.9388,-0.9381,-0.9367,-0.9366,-0.9364,-0.9364,0,-0.8482,-0.8515,-0.8638,-0.871,-0.8731,-0.8808,-0.8871,-0.894,-0.8971,-0.907,-0.9095,-0.9146,-0.924,-0.9276,-0.9392,-0.9409,-0.9541,-0.9538,-0.9516,-0.9519,-0.9591,-0.9585,-0.9816,-0.9848,-0.9661,-0.9662,-0.9664,0,-0.8579,-0.8653,-0.8733,-0.8784,-0.8825,-0.8908,-0.8962,-0.8988,-0.9045,-0.9131,-0.9189,-0.9282,-0.9358,-0.9508,-0.9557,-0.9645,-0.9647,-0.9721,-0.966,-0.9653,-0.9651,-0.9647,-0.9655,-0.9734,-0.9736,-0.9737,-0.9738,0,-0.8748,-0.876,-0.8837,-0.892,-0.8984,-0.9052,-0.9117,-0.9159,-0.9196,-0.926,-0.9354,-0.9413,-0.9529,-0.9622,-0.9713,-0.9756,-0.9755,-0.9756,-0.9779,-0.9776,-0.9762,-0.9773,-0.955,-0.9752,-0.9751,-0.975,-0.9749,-0.9748,-0.8867,-0.8933,-0.8999,-0.9085,-0.9136,-0.9197,-0.9264,-0.9303,-0.9382,-0.9478,-0.9488,-0.959,-0.966,-0.9781,-0.9827,-0.9909,-0.989,-0.9921,-0.993,-0.9938,-0.9944,-0.9746,-0.9925,-0.9925,-0.9924,-0.9924,-0.9924,0,-0.9038,-0.908,-0.9158,-0.9248,-0.9316,-0.9305,-0.9377,-0.9435,-0.9524,-0.9588,-0.9661,-0.9771,-0.986,-0.9915,-1.0006,-1.006,-1.0062,-1.0084,-1.0082,-1.0092,-0.9955,-0.9928,-1.0081,-1.0081,-1.0081,-1.0081,-1.0081,-1.0081,-0.9136,-0.9247,-0.9267,-0.9405,-0.9447,-0.9545,-0.9587,-0.9644,-0.9695,-0.9816,-0.9889,-0.9923,-0.9984,-1.0079,-1.0161,-1.0175,-1.021,-1.0233,-1.0246,-1.0117,-1.0101,-1.0086,-1.0061,-1.024,-1.024,-1.0376,-1.0378,-1.0379]},{"header":{"parameterUnit":"m.s-1","parameterCategory":1,"la1":30.2991,"la2":30.254,"lo1":-89.0895,"lo2":-89.0444,"dy":0.0017,"dx":0.0017,"nx":28,"ny":28,"refTime":"2023-03-18T21:00:00:Z","depth":0,"parameterNumber":3,"parameterNumberName":"V-component_of_WINDS"},"data":[0,0,0,0,0,0,0,0,0,0,0,0,0,0,0,0,0,0,0,0,0,0,0,0,0,0,0,0,0,0,0,0,0,0,0,0,0,0,0,0,0,0,0,0,0,0,0,0,0,0,0,0,0,0,0,0,0,0,-6.7334,-6.7335,0,-6.7436,-6.7437,-6.7438,-6.7323,-6.7319,-6.7314,-6.731,-6.7411,-6.7417,-6.7424,0,0,0,0,0,0,0,0,0,0,0,0,0,-6.7034,-6.7041,-6.7334,-6.7335,-6.7336,-6.7435,-6.7437,-6.7438,-6.7324,-6.7319,-6.7313,-6.7308,-6.7409,-6.7417,-6.7425,0,0,0,0,0,0,0,0,0,0,0,0,0,-6.7153,-6.7043,-6.7333,-6.7291,-6.7288,-6.7435,-6.7437,-6.7438,-6.7325,-6.7318,-6.7312,-6.7306,-6.7406,-6.7416,-6.7426,-6.7618,0,0,-6.7456,-6.7461,0,0,0,0,0,0,0,0,-6.7147,-6.7164,-6.7296,-6.7294,-6.7292,-6.736,-6.7368,-6.7498,-6.7327,-6.7311,-6.731,-6.7303,-6.7399,-6.7409,-6.7442,-6.7622,-6.7627,-6.7457,-6.7463,-6.7468,-6.7471,0,0,0,0,0,0,0,-6.7138,-6.7159,-6.7374,-6.7298,-6.7295,-6.7265,-6.7275,-6.7392,-6.739,-6.7312,-6.7304,-6.7318,-6.7396,-6.7433,-6.7444,-6.7628,-6.7457,-6.7466,-6.7472,-6.7476,-6.7967,-6.7974,0,0,0,0,0,0,-6.7136,-6.7153,-6.737,-6.7377,-6.7202,-6.7276,-6.7287,-6.7345,-6.7388,-6.7389,-6.7323,-6.7312,-6.7419,-6.7432,-6.7447,-6.7673,-6.7468,-6.7477,-6.7483,-6.796,-6.7969,-6.7977,0,0,0,0,0,0,-6.713,-6.7156,-6.7366,-6.7263,-6.7287,-6.7288,-6.7354,-6.735,-6.7386,-6.7397,-6.7395,-6.7361,-6.7414,-6.7433,-6.7576,-6.7675,-6.7482,-6.7491,-6.7952,-6.7963,-6.7973,-6.8127,0,0,0,0,0,0,-6.7122,-6.7155,-6.7229,-6.7265,-6.7293,-6.7496,-6.736,-6.7357,-6.7405,-6.7391,-6.7432,-6.7433,-6.7411,-6.7561,-6.7586,-6.7685,-6.7499,-6.7943,-6.7957,-6.7969,-6.8113,-6.8142,-6.8166,0,0,0,0,0,-6.7111,-6.7268,-6.7234,-6.7261,-6.7387,-6.7502,-6.7517,-6.749,-6.7413,-6.7487,-6.7493,-6.7432,-6.766,-6.7577,-6.7603,-6.7707,-6.7937,-6.7953,-6.7968,-6.8102,-6.8136,-6.8166,0,0,0,0,0,0,-6.7243,-6.7272,-6.7234,-6.7408,-6.7453,-6.7482,-6.7574,-6.7528,-6.7595,-6.7579,-6.754,-6.7551,-6.7702,-6.7719,-6.7626,-6.7894,-6.7786,-6.7807,-6.7878,-6.7911,-6.7937,-6.7929,-6.7507,0,0,0,0,0,-6.7292,-6.7385,-6.7405,-6.7556,-6.7581,-6.7574,-6.7623,-6.7598,-6.7643,-6.7661,-6.7678,-6.7722,-6.7803,-6.7858,-6.7934,-6.8115,-6.8121,-6.8199,-6.8226,-6.8247,-6.8266,-6.8361,-6.8396,-6.8028,-6.8028,-6.8028,0,0,-6.7395,-6.7423,-6.7483,-6.7583,-6.7615,-6.771,-6.7591,-6.7697,-6.7766,-6.7676,-6.7812,-6.7826,-6.7873,-6.8036,-6.8108,-6.8054,-6.8369,-6.8268,-6.8285,-6.8292,-6.8381,-6.8416,-6.8447,-6.8039,-6.8037,-6.8035,0,0,-6.763,-6.7662,-6.779,-6.7825,-6.7875,-6.7869,-6.79,-6.7936,-6.7942,-6.8078,-6.8012,-6.8093,-6.8235,-6.827,-6.8307,-6.8554,-6.8499,-6.8579,-6.8717,-6.881,-6.8839,-6.8864,-6.895,-6.8982,-6.8598,-6.8599,-6.8599,0,-6.7751,-6.7893,-6.7862,-6.7972,-6.8017,-6.7941,-6.8069,-6.8104,-6.8176,-6.8208,-6.8147,-6.8322,-6.8348,-6.8517,-6.8577,-6.861,-6.8642,-6.8574,-6.8837,-6.8862,-6.8886,-6.8967,-6.9,-6.8608,-6.8607,-6.8606,-6.8605,0,-6.8038,-6.8138,-6.8235,-6.8307,-6.8363,-6.8482,-6.8466,-6.8526,-6.8496,-6.8496,-6.8634,-6.8662,-6.8742,-6.878,-6.8751,-6.8944,-6.8909,-6.8844,-6.8734,-6.8931,-6.9007,-6.9038,-6.8621,-6.8618,-6.8615,-6.8613,0,0,-6.8361,-6.8413,-6.8449,-6.848,-6.8529,-6.8604,-6.8718,-6.8797,-6.8848,-6.89,-6.8993,-6.9114,-6.9053,-6.9095,-6.9069,-6.9151,-6.9342,-6.9075,-6.9075,-6.9122,-6.9554,-6.9602,-6.9639,-6.9306,-6.9312,-6.9317,-6.9549,0,-6.8596,-6.8795,-6.8769,-6.896,-6.905,-6.8978,-6.9077,-6.9116,-6.9119,-6.9194,-6.9195,-6.9281,-6.9196,-6.922,-6.9298,-6.9303,-6.9428,-6.9285,-6.939,-6.9395,-6.938,-6.9679,-6.9731,-6.995,-6.9579,-6.9584,-6.9588,0,-6.8897,-6.896,-6.916,-6.9194,-6.923,-6.932,-6.9388,-6.9462,-6.9504,-6.95,-6.9546,-6.9505,-6.9617,-6.9506,-6.9658,-6.9561,-6.9602,-6.9611,-6.9619,-6.9627,-6.9503,-6.9694,-7.0019,-7.0052,-6.9635,-6.9631,-6.9628,0,-6.911,-6.9245,-6.9382,-6.941,-6.9453,-6.9518,-6.9538,-6.9574,-6.9622,-6.9681,-6.9712,-6.9783,-6.9822,-6.9877,-6.9855,-6.9777,-7.0011,-6.9899,-7.0009,-7.001,-7.0061,-7.0058,-7.0397,-7.009,-7.009,-7.0089,-7.0089,0,-6.9375,-6.95,-6.9478,-6.9562,-6.9698,-6.9666,-6.9802,-6.9813,-6.9845,-6.9928,-6.987,-6.9949,-6.9916,-6.9992,-6.9976,-7.0103,-7.0121,-7.0119,-7.0113,-7.0124,-7.0125,-7.015,-7.0134,-7.0098,-7.0096,-7.0094,-7.0093,0,-6.9636,-6.9627,-6.9771,-6.9799,-6.9809,-6.9908,-6.9931,-7.0009,-7.0006,-7.0112,-7.0135,-7.013,-7.0217,-7.0201,-7.0296,-7.0284,-7.0444,-7.0419,-7.043,-7.0424,-7.0535,-7.0524,-7.09,-7.0947,-7.0612,-7.0615,-7.0618,0,-6.9806,-6.99,-6.9938,-6.999,-7.0016,-7.0101,-7.0149,-7.012,-7.0173,-7.0227,-7.0298,-7.0379,-7.0442,-7.0583,-7.0587,-7.0659,-7.0635,-7.0762,-7.0645,-7.0653,-7.0635,-7.063,-7.0638,-7.0785,-7.0789,-7.0792,-7.0794,0,-7.0107,-7.0097,-7.017,-7.0242,-7.0302,-7.0356,-7.0405,-7.045,-7.0425,-7.0487,-7.0575,-7.0624,-7.0721,-7.0802,-7.0868,-7.0886,-7.0836,-7.0831,-7.086,-7.0872,-7.0873,-7.0872,-7.0492,-7.0822,-7.082,-7.0818,-7.0816,-7.0815,-7.0326,-7.0406,-7.0445,-7.0528,-7.0561,-7.0608,-7.0681,-7.0688,-7.0761,-7.0839,-7.0816,-7.0916,-7.0953,-7.1037,-7.1063,-7.1139,-7.1092,-7.1134,-7.1145,-7.1156,-7.1168,-7.0862,-7.1151,-7.115,-7.115,-7.1149,-7.1148,0,-7.0623,-7.0644,-7.0721,-7.0791,-7.0855,-7.0803,-7.0854,-7.0911,-7.0999,-7.1039,-7.1103,-7.1202,-7.128,-7.129,-7.1362,-7.1421,-7.1399,-7.1441,-7.1436,-7.144,-7.1207,-7.1174,-7.1457,-7.1457,-7.1457,-7.1457,-7.1457,-7.1457,-7.0785,-7.0916,-7.0911,-7.1057,-7.1077,-7.1175,-7.1208,-7.1249,-7.128,-7.1395,-7.146,-7.1466,-7.1493,-7.1566,-7.1634,-7.1635,-7.1664,-7.1714,-7.1706,-7.1488,-7.1457,-7.1428,-7.1396,-7.1721,-7.1721,-7.1932,-7.1934,-7.1935]}]]